User: anonymous   Login
Location: Houhaj�rvi
(61.2833°N, 23.0000°E)
Time: 21:56:00
(UTC+00:00)
Language:

Mayak - Orbit

View from above orbital plane
View from above orbital plane
View from above satellite
View from above satellite

Ground track
Ground track

The orbit data is extracted from the following two-line orbital elements,

1 42830U 17042F   20158.43247386  .00000696  00000-0  73487-4 0  9998
2 42830  97.5291  42.1397 0013304 322.2506  37.7780 14.92224110157718
Epoch (UTC): 06 June 2020 10:22:45
Eccentricity: 0.0013304
inclination: 97.5291°
perigee height: 582 km
apogee height: 600 km
right ascension of ascending node: 42.1397°
argument of perigee: 322.2506°
revolutions per day: 14.92224110
mean anomaly at epoch: 37.7780°
orbit number at epoch: 15771

The dashed part of the orbit path shows where the satellite is in the earth's shadow,  

DLR